{"data":{"norad_id":60932,"epoch":"2026-05-24T21:24:28.609920Z","epoch_age_seconds":78203,"freshness":"FRESH","line1":"1 60932U 24155J   26144.89199780  .00000337  00000+0  76358-5 0  9991","line2":"2 60932  53.1593 325.3903 0001072 101.1756 258.9383 15.69708607100372","mean_motion":15.69708607,"eccentricity":0.0001072,"inclination_deg":53.1593,"raan_deg":325.3903,"arg_perigee_deg":101.1756,"mean_anomaly_deg":258.9383,"bstar":7.6358e-6,"rev_number":10037,"period_min":91.736771626175,"perigee_km":359.00843723415,"apogee_km":360.45303607689,"semimajor_km":6737.8677366555,"source":"CELESTRAK","updated_at":"2026-05-25T13:38:19.318721Z"}}